Regional Weather Roundup
Issued by NWS Newport/Morehead, NC

Current Version | Previous Version | Text Only | Print | Product List | Glossary Off
Versions: 1 2 3 4 5 6 7 8 9 10 11 12 13 14 15 16 17 18 19 20 21 22 23 24 25 26 27 28 29 30 31 32 33 34 35 36 37 38 39 40 41 42 43 44 45 46 47 48 49 50
000 ASUS42 KMHX 260613 RWRMHX WEATHER ROUNDUP FOR EASTERN NORTH CAROLINA NATIONAL WEATHER SERVICE NEWPORT/MOREHEAD CITY NC 200 AM EDT THU MAY 26 2016 NOTE: "FAIR" INDICATES FEW OR NO CLOUDS BELOW 12,000 FEET WITH NO SIGNIFICANT WEATHER AND/OR OBSTRUCTIONS TO VISIBILITY NCZ015>017-031-032-045>047-102-103-260700- NORTH COAST CITY SKY/WX TMP DP RH WIND PRES REMARKS EDENTON PTCLDY N/A N/A N/A S5 30.19S ELIZABETH CITY CLEAR 69 59 70 S10 30.17S KITTY HAWK PTCLDY 69 61 76 SW5 30.18R MANTEO PTCLDY 68 64 85 SW7 30.19S $$ NCZ045>047-081-094-103-104-260700- CENTRAL COAST CITY SKY/WX TMP DP RH WIND PRES REMARKS FRISCO PTCLDY 70 66 87 SW6 30.20F $$ NCZ095-097-098-100-101-260700- SOUTHERN COAST CITY SKY/WX TMP DP RH WIND PRES REMARKS BEAUFORT CLEAR 71 68 90 SW7 30.21S CEDAR ISLAND NOT AVBL JACKSONVILLE MOCLDY 68 65 90 CALM 30.19F PINEY ISLAND NOT AVBL WILMINGTON MOCLDY 70 66 87 S5 30.19F $$ NCZ011>013-027>030-043-044-078>080-089-090>093-098-260700- COASTAL PLAIN CITY SKY/WX TMP DP RH WIND PRES REMARKS AHOSKIE NOT AVBL CLINTON CLEAR 68 65 91 CALM 30.18F ELIZABETHTOWN NOT AVBL GOLDSBORO PTCLDY 70 66 89 S6 30.16F GREENVILLE PTCLDY 70 61 73 SW7 30.19S HAVELOCK MOCLDY 68 64 87 S5 30.21S KENANSVILLE PTCLDY 67 62 85 CALM 30.19F KINSTON PTCLDY 70 60 72 S6 30.19F NEW BERN PTCLDY 67 65 93 CALM 30.21S RICHLANDS PTCLDY 66 64 93 S5 30.20F ROCKY MOUNT CLEAR 69 61 75 S7 30.16F WASHINGTON PTCLDY 68 60 77 S6 30.18F WHITEVILLE PTCLDY 70 66 89 SW3 30.18F $$ AMZ130-135-150-152-154-156-158-170-250-252-270-ANZ085-086-088-633-658-670-260700- MARINE OBSERVATIONS STATION/POSITION TIME TEMP WIND PRES WAVE SWELL AIR SEA DIR/SP/G HT/PER HT/PER (UTC) (F) (DEG/KT/KT) (MB) (FT/S) (FT/S) CHESAPEAKE LIGHT 0600 70 230/ 16/ 16 1021.4 64 E VA BEACH 0550 63 58 220/ 12/ 14 1021.3 3/ 8 2/ 8 DUCK 0500 72 60 190/ 9/ 11 1021.2 2 E DUCK 0511 63 N/A 2/10 OREGON INLET 0500 71 74 200/ 10/ 12 1022.2 13E OREGON INLT 0600 65 N/A 2/ 8 2/ 8 HATTERAS CG 0500 70 72 220/ 5/ 7 1022.4 DIAMOND BUOY 0550 71 69 240/ 6/ 6 1022.9 2/ 9 2/ 9 CAPE LOOKOUT 0600 71 210/ 5/ 6 1022.6 BEAUFORT LAB 0500 72 70 210/ 6/ 7 1022.1 30 SE NEW RVR IN 0525 74 N/A 2/ 9 27 SE WRIGHTSVLE 0508 75 74 210/ 10/ 12 1022.5 5 SE WRIGHTSVLE 0508 74 73 210/ 8/ 12 1023.4 225 S CAPE HAT 0550 75 78 80/ 12/ 16 1023.1 2/ 8 2/ 8 41 SE CHARLESTON 0550 77 76 190/ 8/ 10 1022.4 2/ 9 2/ 9 $$

USA.gov is the U.S. government's official web portal to all federal, state and local government web resources and services.